Weather History for Ashtabula, OH

Change the Weather History Date:

Sunday, March 23, 2014

  Actual Average (KYNG) Record (KYNG)
Temperature  
Mean Temperature 25 °F 39 °F  
Max Temperature 30 °F 49 °F 82 °F (1938)
Min Temperature 17 °F 30 °F 10 °F (1940)
Degree Days  
Heating Degree Days 40 26  
Month to date heating degree days 686  
Since 1 July heating degree days 5334  
Cooling Degree Days 0 0  
Month to date cooling degree days 0  
Year to date cooling degree days 0  
Moisture  
Dew Point 13 °F    
Average Humidity 69    
Maximum Humidity 80    
Minimum Humidity 54    
Precipitation  
Precipitation 0.00 in 0.09 in 0.72 in (1953)
Month to date precipitation 2.10  
Year to date precipitation 6.80  
Snow  
Snow 0.00 in 0.30 in - ()
Month to date snowfall 8.8  
Since 1 July snowfall 57.6  
Snow Depth -    
Sea Level Pressure  
Sea Level Pressure 30.26 in    
Wind  
Wind Speed 9 mph (NNW)    
Max Wind Speed 14 mph    
Max Gust Speed 21 mph    
Visibility 8 miles    
Events Snow    
T = Trace of Precipitation, MM = Missing Value Source: NWS Daily Summary

Daily Weather History Graph

Daily Weather History Graph

Search for Another Location

Airport:

Trip Planner

Search our weather history database for the weather conditions in past years. The results will help you decide how hot, cold, wet, or windy it might be!

Date:

Astronomy

Mar. 23, 2014 Rise Set
Actual Time 7:20 AM EDT 7:38 PM EDT
Civil Twilight 6:53 AM EDT 8:06 PM EDT
Nautical Twilight 6:20 AM EDT 8:38 PM EDT
Astronomical Twilight 5:47 AM EDT 9:12 PM EDT
Moon 1:58 AM EDT (3/23) 11:56 AM EDT (3/23)
Length of Visible Light 13h 12m
Length of Day
12h 17m
Waning Gibbous, 55% of the Moon is Illuminated
Mar 23
Waning Gibbous
Mar 23
Last Quarter
Mar 30
New
Apr 7
First Quarter
Apr 15
Full

Hourly Weather History & Observations

Time (EDT) Temp. Windchill Dew Point Humidity Pressure Visibility Wind Dir Wind Speed Gust Speed Precip Events Conditions
12:09 AM 33.8 °F 27.0 °F 26.6 °F 75% 30.12 in 9.0 mi NNW 8.1 mph 16.1 mph 0.00 in   Overcast
12:49 AM 30.2 °F 21.9 °F 24.8 °F 80% 30.14 in 10.0 mi NNW 9.2 mph 16.1 mph 0.00 in   Overcast
12:53 AM 30.0 °F 22.4 °F 24.1 °F 79% 30.17 in 10.0 mi NNW 8.1 mph - 0.00 in   Overcast
1:35 AM 30.2 °F 20.8 °F 23.0 °F 75% 30.15 in 8.0 mi North 11.5 mph 20.7 mph 0.00 in Snow Light Snow
1:53 AM 28.0 °F 18.6 °F 21.9 °F 78% 30.20 in 9.0 mi North 10.4 mph - 0.00 in Snow Light Snow
2:45 AM 26.6 °F 16.2 °F 19.4 °F 74% 30.18 in 10.0 mi North 11.5 mph 19.6 mph 0.00 in   Overcast
2:53 AM 26.1 °F 14.5 °F 18.0 °F 71% 30.21 in 10.0 mi NNW 13.8 mph 20.7 mph 0.00 in   Overcast
3:19 AM 26.6 °F 17.5 °F 17.6 °F 69% 30.18 in 10.0 mi North 9.2 mph 17.3 mph N/A   Overcast
3:53 AM 25.0 °F 14.8 °F 16.0 °F 69% 30.22 in 10.0 mi NNW 10.4 mph 19.6 mph N/A   Overcast
4:15 AM 24.8 °F 15.3 °F 15.8 °F 69% 30.19 in 10.0 mi North 9.2 mph 19.6 mph N/A   Overcast
4:53 AM 23.0 °F 12.4 °F 14.0 °F 68% 30.22 in 10.0 mi North 10.4 mph - N/A   Overcast
5:53 AM 21.9 °F 13.4 °F 14.0 °F 72% 30.24 in 7.0 mi North 6.9 mph - 0.00 in Snow Light Snow
6:53 AM 19.0 °F 8.2 °F 12.0 °F 74% 30.27 in 5.0 mi North 9.2 mph 18.4 mph 0.00 in Snow Light Snow
7:53 AM 18.0 °F 6.9 °F 9.0 °F 68% 30.30 in 10.0 mi North 9.2 mph 17.3 mph 0.00 in   Overcast
8:53 AM 18.0 °F 9.8 °F 9.0 °F 68% 30.30 in 10.0 mi North 5.8 mph - N/A   Overcast
9:53 AM 18.0 °F 6.1 °F 9.0 °F 68% 30.31 in 9.0 mi NW 10.4 mph - 0.00 in   Overcast
10:53 AM 18.0 °F 6.9 °F 8.1 °F 65% 30.32 in 9.0 mi NNW 9.2 mph 18.4 mph 0.00 in Snow Light Snow
11:53 AM 19.0 °F 11.1 °F 8.1 °F 62% 30.32 in 8.0 mi Variable 5.8 mph - 0.00 in Snow Light Snow
12:53 PM 19.9 °F 9.3 °F 10.0 °F 65% 30.32 in 8.0 mi NNW 9.2 mph - 0.00 in Snow Light Snow
1:53 PM 19.0 °F 6.1 °F 8.1 °F 62% 30.31 in 5.0 mi NNW 12.7 mph 17.3 mph 0.00 in Snow Light Snow
2:53 PM 19.9 °F 8.6 °F 8.1 °F 60% 30.30 in 8.0 mi NNW 10.4 mph 19.6 mph 0.00 in Snow Light Snow
3:40 PM 21.2 °F 10.1 °F 6.8 °F 54% 30.26 in 10.0 mi North 10.4 mph - 0.00 in   Overcast
3:53 PM 21.0 °F 9.9 °F 8.1 °F 57% 30.30 in 10.0 mi NW 10.4 mph - 0.00 in   Overcast
4:29 PM 19.4 °F 9.5 °F 8.6 °F 63% 30.25 in 9.0 mi NNW 8.1 mph - 0.00 in Snow Light Snow
4:53 PM 19.9 °F 10.1 °F 10.0 °F 65% 30.30 in 10.0 mi North 8.1 mph - 0.00 in   Overcast
5:03 PM 19.4 °F 8.6 °F 12.2 °F 74% 30.25 in 2.0 mi NW 9.2 mph - 0.00 in Snow Light Snow
5:06 PM 19.4 °F 9.5 °F 12.2 °F 74% 30.26 in 1.0 mi NNW 8.1 mph - 0.00 in Snow Light Snow
5:20 PM 19.4 °F 7.2 °F 12.2 °F 74% 30.26 in 1.5 mi NW 11.5 mph - 0.00 in Snow Light Snow
5:27 PM 19.4 °F 9.5 °F 12.2 °F 74% 30.26 in 3.0 mi NW 8.1 mph - 0.00 in Snow Light Snow
5:53 PM 19.9 °F 11.1 °F 10.9 °F 68% 30.31 in 5.0 mi NW 6.9 mph - 0.00 in Snow Light Snow
6:53 PM 19.0 °F 8.2 °F 12.0 °F 74% 30.32 in 7.0 mi NW 9.2 mph - 0.00 in Snow Light Snow
7:53 PM 19.9 °F 8.6 °F 8.1 °F 60% 30.33 in 10.0 mi NNW 10.4 mph - 0.00 in   Overcast
8:53 PM 19.0 °F 10.0 °F 9.0 °F 65% 30.35 in 10.0 mi NNW 6.9 mph - N/A   Overcast
9:53 PM 18.0 °F 12.7 °F 9.0 °F 68% 30.36 in 10.0 mi NW 3.5 mph - N/A   Scattered Clouds
10:53 PM 17.1 °F - 9.0 °F 71% 30.37 in 10.0 mi Calm Calm - N/A   Mostly Cloudy
11:53 PM 18.0 °F - 10.0 °F 71% 30.37 in 10.0 mi Calm Calm - N/A   Overcast